Weather History for Rochelle, IL

Change the Weather History Date:

Wednesday, April 24, 2013

  Actual Average (KRFD) Record (KRFD)
Temperature  
Mean Temperature 42 °F 53 °F  
Max Temperature 50 °F 64 °F 88 °F (1915)
Min Temperature 35 °F 41 °F 16 °F (1967)
Degree Days  
Heating Degree Days 23 13  
Month to date heating degree days 407  
Since 1 July heating degree days 6271  
Cooling Degree Days 0 0  
Month to date cooling degree days 0  
Year to date cooling degree days 0  
Moisture  
Dew Point 31 °F    
Average Humidity 68    
Maximum Humidity 88    
Minimum Humidity 47    
Precipitation  
Precipitation 0.02 in 0.11 in 1.40 in (1950)
Month to date precipitation 2.66  
Year to date precipitation 7.76  
Snow  
Snow 0.00 in 0.00 in 1.50 in (1910)
Month to date snowfall 0.9  
Since 1 July snowfall 36.7  
Snow Depth -    
Sea Level Pressure  
Sea Level Pressure 30.04 in    
Wind  
Wind Speed 12 mph (WNW)    
Max Wind Speed 16 mph    
Max Gust Speed 25 mph    
Visibility 10 miles    
Events Rain    
T = Trace of Precipitation, MM = Missing Value Source: NWS Daily Summary

Daily Weather History Graph

Daily Weather History Graph

Search for Another Location

Airport:

Trip Planner

Search our weather history database for the weather conditions in past years. The results will help you decide how hot, cold, wet, or windy it might be!

Date:

Astronomy

Apr. 24, 2013 Rise Set
Actual Time 6:01 AM CDT 7:47 PM CDT
Civil Twilight 5:32 AM CDT 8:17 PM CDT
Nautical Twilight 4:56 AM CDT 8:53 PM CDT
Astronomical Twilight 4:17 AM CDT 9:32 PM CDT
Moon 6:50 PM CDT (4/24) 5:06 AM CDT (4/24)
Length of Visible Light 14h 45m
Length of Day
13h 45m
Waxing Gibbous, 98% of the Moon is Illuminated
Apr 24
Waxing Gibbous
Apr 25
Full
May 2
Last Quarter
May 9
New
May 17
First Quarter

Hourly Weather History & Observations

Time (CDT) Temp. Windchill Dew Point Humidity Pressure Visibility Wind Dir Wind Speed Gust Speed Precip Events Conditions
12:15 AM 38.3 °F 29.7 °F 33.1 °F 81% 29.99 in 10.0 mi North 15.0 mph - N/A Rain Light Rain
12:35 AM 37.0 °F 27.7 °F 32.9 °F 85% 30.00 in 10.0 mi North 16.1 mph 25.3 mph N/A Rain Light Rain
12:55 AM 37.4 °F 28.5 °F 32.7 °F 83% 30.01 in 10.0 mi North 15.0 mph 18.4 mph N/A Rain Light Rain
1:15 AM 37.4 °F 29.3 °F 32.5 °F 83% 30.00 in 10.0 mi North 12.7 mph 18.4 mph N/A Rain Light Rain
1:35 AM 36.5 °F 27.0 °F 32.5 °F 86% 29.99 in 10.0 mi NNW 16.1 mph 21.9 mph 0.01 in Rain Light Rain
1:55 AM 35.8 °F 28.3 °F 32.5 °F 88% 29.99 in 10.0 mi North 10.4 mph - 0.02 in Rain Light Rain
2:15 AM 36.5 °F 32.7 °F 32.7 °F 86% 29.98 in 10.0 mi NNE 4.6 mph - N/A Rain Light Rain
2:35 AM 36.9 °F 33.1 °F 33.1 °F 86% 29.97 in 10.0 mi North 4.6 mph - N/A   Overcast
2:55 AM 37.0 °F 31.0 °F 32.9 °F 85% 29.96 in 10.0 mi NNW 8.1 mph - N/A   Overcast
3:15 AM 37.0 °F 29.3 °F 32.0 °F 82% 29.97 in 10.0 mi North 11.5 mph 16.1 mph N/A   Overcast
3:35 AM 37.0 °F 31.6 °F 32.5 °F 84% 29.98 in 10.0 mi NNW 6.9 mph - N/A   Overcast
3:55 AM 36.9 °F 32.2 °F 32.2 °F 83% 29.99 in 10.0 mi NW 5.8 mph - N/A   Overcast
4:15 AM 36.9 °F 32.2 °F 32.4 °F 84% - 10.0 mi NW 5.8 mph - N/A   Overcast
4:35 AM 36.7 °F 32.0 °F 32.0 °F 83% 29.99 in 10.0 mi NW 5.8 mph - N/A   Overcast
4:55 AM 36.5 °F 31.0 °F 32.0 °F 84% 30.00 in 10.0 mi NW 6.9 mph - N/A   Overcast
5:15 AM 36.3 °F 31.6 °F 31.3 °F 82% 30.00 in 10.0 mi NW 5.8 mph - N/A   Overcast
5:55 AM 35.6 °F 29.2 °F 31.1 °F 84% 30.00 in 10.0 mi NW 8.1 mph - N/A   Overcast
6:15 AM 35.2 °F 28.1 °F 31.1 °F 85% 30.00 in 10.0 mi NW 9.2 mph - N/A   Overcast
6:35 AM 35.4 °F 29.7 °F 30.9 °F 84% 30.01 in 10.0 mi NW 6.9 mph - N/A   Mostly Cloudy
6:55 AM 35.4 °F 28.4 °F 30.6 °F 82% 30.01 in 10.0 mi NW 9.2 mph - N/A   Mostly Cloudy
7:15 AM 35.4 °F 29.7 °F 30.4 °F 82% 30.02 in 10.0 mi NW 6.9 mph - N/A   Mostly Cloudy
7:35 AM 35.6 °F 28.6 °F 30.4 °F 81% 30.03 in 10.0 mi NW 9.2 mph - N/A   Scattered Clouds
7:55 AM 35.6 °F 27.1 °F 29.3 °F 78% 30.03 in 10.0 mi NW 12.7 mph - N/A   Clear
8:15 AM 36.0 °F 27.5 °F 29.8 °F 78% 30.03 in 10.0 mi NW 12.7 mph - N/A   Clear
8:35 AM 36.5 °F 28.7 °F 29.8 °F 77% 30.03 in 10.0 mi NW 11.5 mph 17.3 mph N/A   Clear
8:55 AM 37.6 °F 29.6 °F 30.2 °F 75% 30.04 in 10.0 mi NW 12.7 mph - N/A   Clear
9:15 AM 38.3 °F 30.1 °F 28.9 °F 69% 30.05 in 10.0 mi NNW 13.8 mph - N/A   Clear
9:35 AM 38.5 °F 31.6 °F 28.4 °F 67% 30.06 in 10.0 mi NNW 10.4 mph - N/A   Clear
9:55 AM 39.7 °F 33.2 °F 26.8 °F 60% 30.06 in 10.0 mi NW 10.4 mph 17.3 mph N/A   Clear
10:15 AM 40.3 °F 33.4 °F 28.4 °F 63% 30.06 in 10.0 mi NW 11.5 mph - N/A   Clear
10:35 AM 40.3 °F 33.9 °F 29.7 °F 66% 30.07 in 10.0 mi NW 10.4 mph - N/A   Scattered Clouds
10:55 AM 41.7 °F 34.4 °F 29.1 °F 61% 30.06 in 10.0 mi NNW 13.8 mph 18.4 mph N/A   Scattered Clouds
11:15 AM 42.3 °F 35.1 °F 28.4 °F 58% 30.06 in 10.0 mi WNW 13.8 mph - N/A   Mostly Cloudy
11:35 AM 44.1 °F 38.1 °F 29.3 °F 56% 30.05 in 10.0 mi WNW 11.5 mph 18.4 mph N/A   Mostly Cloudy
11:55 AM 43.7 °F 36.9 °F 29.7 °F 58% 30.06 in 10.0 mi WNW 13.8 mph 19.6 mph N/A   Mostly Cloudy
12:15 PM 44.4 °F 39.0 °F 28.4 °F 53% 30.06 in 10.0 mi NW 10.4 mph 20.7 mph N/A   Mostly Cloudy
12:35 PM 45.3 °F 39.0 °F 29.7 °F 54% 30.06 in 10.0 mi WNW 13.8 mph 18.4 mph N/A   Scattered Clouds
12:55 PM 45.3 °F 40.1 °F 29.7 °F 54% 30.06 in 10.0 mi WNW 10.4 mph 19.6 mph N/A   Mostly Cloudy
1:15 PM 45.9 °F 39.7 °F 30.4 °F 55% 30.06 in 10.0 mi West 13.8 mph 18.4 mph N/A   Scattered Clouds
1:35 PM 45.9 °F 41.2 °F 28.2 °F 50% 30.06 in 10.0 mi West 9.2 mph - N/A   Scattered Clouds
1:55 PM 47.1 °F - 31.8 °F 55% 30.06 in 10.0 mi West 16.1 mph - N/A   Mostly Cloudy
2:15 PM 46.9 °F - 30.6 °F 53% 30.07 in 10.0 mi WNW 11.5 mph 20.7 mph N/A   Scattered Clouds
2:35 PM 47.5 °F - 30.6 °F 52% 30.07 in 10.0 mi West 13.8 mph 20.7 mph N/A   Mostly Cloudy
2:55 PM 47.5 °F - 30.7 °F 52% 30.06 in 10.0 mi West 12.7 mph 17.3 mph N/A   Mostly Cloudy
3:15 PM 48.0 °F - 30.0 °F 50% 30.06 in 10.0 mi West 12.7 mph 18.4 mph N/A   Scattered Clouds
3:35 PM 48.4 °F - 30.6 °F 50% 30.06 in 10.0 mi West 10.4 mph - N/A   Scattered Clouds
3:55 PM 48.9 °F - 31.6 °F 51% 30.06 in 10.0 mi West 10.4 mph 18.4 mph N/A   Scattered Clouds
4:15 PM 49.1 °F - 30.2 °F 48% 30.06 in 10.0 mi WSW 12.7 mph 20.7 mph N/A   Scattered Clouds
4:35 PM 49.6 °F - 31.5 °F 50% 30.06 in 10.0 mi West 15.0 mph 18.4 mph N/A   Scattered Clouds
4:55 PM 49.5 °F - 30.0 °F 47% 30.06 in 10.0 mi WSW 10.4 mph 20.7 mph N/A   Scattered Clouds
5:15 PM 49.8 °F - 30.4 °F 47% 30.06 in 10.0 mi West 13.8 mph 21.9 mph N/A   Scattered Clouds
5:35 PM 49.6 °F - 29.8 °F 47% 30.06 in 10.0 mi West 13.8 mph 18.4 mph N/A   Clear
5:55 PM 49.6 °F - 31.6 °F 50% 30.06 in 10.0 mi WSW 15.0 mph 19.6 mph N/A   Scattered Clouds
6:15 PM 49.5 °F - 31.3 °F 50% 30.07 in 10.0 mi West 12.7 mph - N/A   Scattered Clouds
6:35 PM 48.9 °F - 31.1 °F 50% 30.06 in 10.0 mi SW 15.0 mph - N/A   Clear
6:55 PM 48.2 °F - 31.8 °F 53% 30.07 in 10.0 mi SW 15.0 mph - N/A   Clear
7:15 PM 47.3 °F - 32.2 °F 56% 30.08 in 10.0 mi WSW 13.8 mph - N/A   Clear
7:35 PM 45.7 °F 40.2 °F 32.0 °F 59% 30.08 in 10.0 mi SW 11.5 mph - N/A   Clear
7:55 PM 44.4 °F 39.0 °F 32.4 °F 63% 30.09 in 10.0 mi SW 10.4 mph - N/A   Clear
8:15 PM 42.8 °F 37.5 °F 33.8 °F 70% 30.09 in 10.0 mi SW 9.2 mph - N/A   Clear
8:35 PM 42.1 °F 36.6 °F 33.6 °F 72% 30.09 in 10.0 mi SSW 9.2 mph - N/A   Clear
8:55 PM 41.2 °F 35.0 °F 32.9 °F 72% 30.09 in 10.0 mi SSW 10.4 mph - N/A   Clear
10:15 PM 38.7 °F 31.8 °F 33.1 °F 80% 30.10 in 10.0 mi South 10.4 mph - N/A   Clear
10:35 PM 38.8 °F 31.2 °F 32.9 °F 79% 30.10 in 10.0 mi SSW 12.7 mph - N/A   Clear
10:55 PM 39.2 °F 31.2 °F 32.5 °F 77% 30.09 in 10.0 mi SSW 13.8 mph - N/A   Clear
11:15 PM 39.2 °F 31.2 °F 32.0 °F 75% 30.09 in 10.0 mi SSW 13.8 mph - N/A   Clear
11:35 PM 38.3 °F 30.5 °F 32.2 °F 79% 30.09 in 10.0 mi SSW 12.7 mph - N/A   Clear
11:55 PM 38.3 °F 30.1 °F 32.0 °F 78% 30.08 in 10.0 mi South 13.8 mph - N/A   Clear